Goshen, IN

9:16 AM EST on January 19, 2018 (GMT -0500)
Goshen Municipal

Weather History for KGSH - July, 2013

Change the Weather History Date:

Tuesday, July 23, 2013

  Actual Average Record
Temperature  
Mean Temperature 72 °F -  
Max Temperature 82 °F 83 °F 97 °F (2012)
Min Temperature 61 °F 62 °F 48 °F (2000)
Cooling Degree Days 6    
Growing Degree Days 22 (Base 50)    
Moisture  
Dew Point 62 °F    
Average Humidity 71    
Maximum Humidity 90    
Minimum Humidity 55    
Precipitation  
Precipitation 0.00 in - - ()
Sea Level Pressure  
Sea Level Pressure 29.79 in    
Wind  
Wind Speed 9 mph (WNW)    
Max Wind Speed 21 mph    
Max Gust Speed 28 mph    
Visibility 10 miles    
Events Thunderstorm    
Averages and records for this station are not official NWS values.
T = Trace of Precipitation, MM = Missing Value Source: NWS Daily Summary

Daily Weather History Graph

Daily Weather History Graph

Search for Another Location

Airport or City:

Trip Planner

Search our weather history database for the weather conditions in past years. The results will help you decide how hot, cold, wet, or windy it might be!

Date:

Astronomy

Jul. 23, 2013 Rise Set
Actual Time 6:29 AM EDT 9:09 PM EDT
Civil Twilight 5:57 AM EDT 9:41 PM EDT
Nautical Twilight 5:17 AM EDT 10:21 PM EDT
Astronomical Twilight 4:31 AM EDT 11:06 PM EDT
Moon 9:34 PM EDT (7/23) 7:38 AM EDT (7/23)
Length of Visible Light 15h 44m
Length of Day
14h 39m
Full, 99% of the Moon is Illuminated
Jul 23
Full
Jul 29
Last Quarter
Aug 6
New
Aug 14
First Quarter
Aug 20
Full

Hourly Weather History & Observations

Time (EDT) Temp. Heat Index Dew Point Humidity Pressure Visibility Wind Dir Wind Speed Gust Speed Precip Events Conditions
12:53 AM 71.1 °F - 66.0 °F 84% 29.81 in 10.0 mi SSE 3.5 mph - N/A   Clear
1:53 AM 71.1 °F - 66.0 °F 84% 29.79 in 10.0 mi SSW 4.6 mph - N/A   Clear
2:53 AM 71.1 °F - 66.0 °F 84% 29.76 in 10.0 mi SSW 6.9 mph - N/A   Clear
3:53 AM 72.0 °F - 66.9 °F 84% 29.75 in 10.0 mi WSW 9.2 mph - N/A Thunderstorm Mostly Cloudy
4:16 AM 71.6 °F - 66.2 °F 83% 29.75 in 10.0 mi SW 8.1 mph - N/A   Mostly Cloudy
4:53 AM 71.1 °F - 66.9 °F 87% 29.71 in 9.0 mi SSW 8.1 mph - N/A   Clear
5:53 AM 70.0 °F - 66.0 °F 87% 29.72 in 10.0 mi SW 5.8 mph - N/A   Scattered Clouds
6:53 AM 70.0 °F - 66.9 °F 90% 29.72 in 8.0 mi Calm Calm - N/A   Clear
7:53 AM 72.0 °F - 66.9 °F 84% 29.74 in 10.0 mi West 5.8 mph - N/A   Clear
8:53 AM 75.0 °F - 66.9 °F 76% 29.77 in 10.0 mi West 6.9 mph - N/A   Clear
9:53 AM 77.0 °F - 64.0 °F 64% 29.76 in 10.0 mi West 15.0 mph - N/A   Clear
10:53 AM 78.1 °F - 64.0 °F 62% 29.76 in 10.0 mi WNW 10.4 mph - N/A   Clear
11:53 AM 79.0 °F - 64.0 °F 60% 29.77 in 10.0 mi WNW 9.2 mph - N/A   Clear
12:53 PM 81.0 °F 83.0 °F 66.0 °F 60% 29.77 in 10.0 mi WSW 10.4 mph 18.4 mph N/A   Scattered Clouds
1:53 PM 81.0 °F 83.0 °F 66.0 °F 60% 29.76 in 10.0 mi West 12.7 mph - N/A   Mostly Cloudy
2:53 PM 81.0 °F 83.3 °F 66.9 °F 62% 29.76 in 10.0 mi WNW 18.4 mph 23.0 mph N/A   Mostly Cloudy
3:35 PM 78.8 °F - 64.4 °F 61% 29.79 in 10.0 mi NW 20.7 mph 27.6 mph N/A   Mostly Cloudy
3:53 PM 77.0 °F - 64.0 °F 64% 29.78 in 10.0 mi NW 20.7 mph 25.3 mph N/A   Mostly Cloudy
4:01 PM 75.2 °F - 62.6 °F 65% 29.80 in 10.0 mi NW 19.6 mph 26.5 mph N/A   Mostly Cloudy
4:25 PM 75.2 °F - 62.6 °F 65% 29.81 in 10.0 mi NW 17.3 mph 26.5 mph N/A   Mostly Cloudy
4:51 PM 73.4 °F - 60.8 °F 65% 29.81 in 10.0 mi NW 17.3 mph 25.3 mph N/A   Mostly Cloudy
4:53 PM 73.9 °F - 61.0 °F 64% 29.80 in 10.0 mi NNW 16.1 mph 25.3 mph N/A   Mostly Cloudy
5:53 PM 73.0 °F - 55.9 °F 55% 29.81 in 10.0 mi NNW 19.6 mph 27.6 mph N/A   Clear
6:53 PM 72.0 °F - 55.0 °F 55% 29.81 in 10.0 mi NNW 15.0 mph 25.3 mph N/A   Clear
7:53 PM 69.1 °F - 53.1 °F 57% 29.83 in 10.0 mi NNW 17.3 mph 21.9 mph N/A   Clear
8:53 PM 66.0 °F - 53.1 °F 63% 29.83 in 10.0 mi NNW 16.1 mph 20.7 mph N/A   Clear
9:53 PM 63.0 °F - 54.0 °F 72% 29.84 in 10.0 mi NNW 11.5 mph 17.3 mph N/A   Clear
10:53 PM 62.1 °F - 53.1 °F 72% 29.88 in 10.0 mi NNW 8.1 mph - N/A   Clear
11:53 PM 61.0 °F - 54.0 °F 78% 29.92 in 10.0 mi NNW 5.8 mph - N/A   Clear